Weather in Lindau

Germany     47°33′40″N   9°41′35″E
temp.,
°C
wind,
m/s
gust,
m/s
humid.,
%
clouds,
%
prec.,
mm/h
press.,
hPa
HPBL,
m
9 may, sun
sun923:00+9se3368100 0.0 101641
02:00+8se33566 0.0 101646
05:00+8sse3360100 0.0 101455
08:00+12sse246451 0.0 1013121
11:00+20sw23428 0.0 1011557
14:00+25w133590 0.0 10081461
17:00+24sw344172 0.0 1006843
20:00+17s38704 0.0 1007129
10 may, mon
mon1023:00+12sse4775100 0.0 1009112
02:00+11s357398 0.0 100986
05:00+10sse3472100 0.0 100786
08:00+14s24685 0.0 1007163
11:00+18nw3356100 0.0 1008600
14:00+19w1260100 0.0 1009375
17:00+18nnw226695 0.2 1009427
20:00+16ene1187100 0.3 100717
11 may, tue
tue1123:00+11s2391100 0.5 100748
02:00+9ssw239415 0.5 100974
05:00+9sse238999 0.0 101069
08:00+11s1185100 0.0 1009100
11:00+13nnw2283100 0.1 1007659
14:00+13nw1181100 0.2 1006378
17:00+11wnw2295100 0.3 1006230
20:00+10wnw2397100 3.5 1007272
12 may, wed
wed1223:00+9wsw41096100 7.3 1010803
02:00+7sw41093100 15.4 1012947
05:00+6ssw3795100 8.1 1013560
08:00+6ssw3795100 13.9 1014599
11:00+6s3595100 2.9 1014463
14:00+7sse1293100 3.7 1013192
17:00+9ese1183100 0.0 1012350
20:00+8se1187100 0.1 101242
13 may, thu
thu1323:00+8s1288100 0.1 101263
02:00+8ssw1188100 0.2 101148
05:00+8w1193100 0.3 101050
08:00+8wnw119492 0.8 1010114
11:00+10wnw0087100 0.8 1010376
14:00+12nw2266100 1.4 1009994
17:00+14wnw1258100 0.4 10081049
20:00+10nne118094 1.1 100914